Погода в Эль-Альто

Боливия     16°31′51″S   68°11′37″W
темп.,
°C
ветер,
м/с
пор.,
м/с
влажн.,
%
обл.,
%
осадки,
мм/ч
давл.,
гПа
погр.,
м
27 июля, вт
вт2723:00+4юв34622 0.0 102073
02:00+2ю11790 0.0 102110
05:00+1с11715 0.0 102110
08:00+4юз00530 0.0 102256
11:00+9юз23375 0.0 10191317
14:00+12з792912 0.0 10142318
17:00+11зсз810294 0.0 10121575
20:00+6всв225534 0.0 101644
28 июля, ср
ср2823:00+4вюв22753 0.0 102174
02:00+2юв22905 0.0 102117
05:00+1ссз119128 0.0 102010
08:00+3сз22788 0.0 1022121
11:00+9з574418 0.0 10181566
14:00+12з893554 0.0 10121858
17:00+10зсз79395 0.0 10111472
20:00+5в467073 0.0 1017173
29 июля, чт
чт2923:00+3в237912 0.0 1021114
02:00+2в228114 0.0 102135
05:00+1ю018675 0.0 102084
08:00+3в117898 0.0 1021233
11:00+6з246180 0.1 1020823
14:00+11зсз783782 0.1 10132105
17:00+10зсз663654 0.0 10121410
20:00+5вюв456552 0.0 1017109
30 июля, пт
пт3023:00+3вюв3477100 0.0 1021143
02:00+2юв228493 0.0 102148
05:00+1юв118897 0.0 102127
08:00+2вюв117768 0.0 102294
11:00+8ююз235463 0.0 1019992
14:00+11ююз254276 0.0 10131800
17:00+10вюв335021 0.1 1012952
20:00+4всв577455 0.1 1017294
31 июля, сб
сб3123:00+3в347597 0.1 1021263
02:00+2юв2380100 0.1 1021137
05:00+1вюв238398 0.0 102149
08:00+3вюв227693 0.0 1022225
11:00+8юз245698 0.0 10191133
14:00+10з4844100 0.1 10151688
17:00+11зсз5835100 0.0 10121341
20:00+4в457098 0.0 1021346